Phoenix, AZ

3:15 PM MST on June 24, 2018 (GMT -0700)
Phoenix Sky Harbor International

Weather History for KPHX - October, 2017

Change the Weather History Date:

Thursday, October 12, 2017

  Actual Average Record
Temperature  
Mean Temperature 80 °F 78 °F  
Max Temperature 94 °F 90 °F 103 °F (1950)
Min Temperature 66 °F 66 °F 44 °F (1924)
Degree Days  
Heating Degree Days 0 0  
Month to date heating degree days 0 0  
Since 1 July heating degree days 0 0  
Cooling Degree Days 15 13  
Month to date cooling degree days 204 186  
Year to date cooling degree days 4715 4355  
Growing Degree Days 30 (Base 50)    
Moisture  
Dew Point 35 °F    
Average Humidity 25    
Maximum Humidity 42    
Minimum Humidity 8    
Precipitation  
Precipitation 0.00 in 0.02 in 0.32 in (1957)
Month to date precipitation 0.00 0.23  
Year to date precipitation 4.73 6.15  
Snow  
Snow 0.00 in - - ()
Month to date snowfall 0.0  
Year to date snowfall 0.0  
Since 1 July snowfall 0.0  
Snow Depth 0.00 in    
Sea Level Pressure  
Sea Level Pressure 29.81 in    
Wind  
Wind Speed 5 mph (ENE)    
Max Wind Speed 12 mph    
Max Gust Speed 16 mph    
Visibility 10 miles    
Events      
T = Trace of Precipitation, MM = Missing Value Source: NWS Daily Summary

Daily Weather History Graph

Daily Weather History Graph

Search for Another Location

Airport or City:

Astronomy

Oct. 12, 2017 Rise Set
Actual Time 6:30 AM MST 5:57 PM MST
Civil Twilight 6:05 AM MST 6:22 PM MST
Nautical Twilight 5:36 AM MST 6:51 PM MST
Astronomical Twilight 5:08 AM MST 7:20 PM MST
Moon No Moon Rise 1:34 PM MST (10/12)
Length of Visible Light 12h 16m
Length of Day
11h 27m
Waning Gibbous, 47% of the Moon is Illuminated
Oct 12
Waning Gibbous
Oct 19
New
Oct 27
First Quarter
Nov 3
Full
Nov 10
Last Quarter

Hourly Weather History & Observations

Time (MST) Temp. Dew Point Humidity Pressure Visibility Wind Dir Wind Speed Gust Speed Precip Events Conditions
12:51 AM 77.0 °F 37.0 °F 24% 29.77 in 10.0 mi East 6.9 mph - N/A   Clear
1:51 AM 72.0 °F 41.0 °F 33% 29.78 in 10.0 mi ESE 5.8 mph - N/A   Clear
2:51 AM 72.0 °F 39.9 °F 31% 29.78 in 10.0 mi East 6.9 mph - N/A   Clear
3:51 AM 70.0 °F 41.0 °F 35% 29.78 in 10.0 mi East 9.2 mph - N/A   Clear
4:51 AM 69.1 °F 39.0 °F 33% 29.80 in 10.0 mi East 8.1 mph - N/A   Clear
5:51 AM 66.9 °F 42.1 °F 40% 29.81 in 10.0 mi East 5.8 mph - N/A   Clear
6:51 AM 66.9 °F 41.0 °F 39% 29.83 in 10.0 mi East 8.1 mph - N/A   Partly Cloudy
7:51 AM 70.0 °F 39.9 °F 33% 29.86 in 10.0 mi East 5.8 mph - N/A   Partly Cloudy
8:51 AM 75.9 °F 39.9 °F 27% 29.87 in 10.0 mi SE 4.6 mph - N/A   Partly Cloudy
9:51 AM 81.0 °F 39.0 °F 22% 29.87 in 10.0 mi Variable 5.8 mph - N/A   Partly Cloudy
10:51 AM 84.9 °F 36.0 °F 17% 29.86 in 10.0 mi SSE 4.6 mph - N/A   Partly Cloudy
11:51 AM 87.1 °F 34.0 °F 15% 29.85 in 10.0 mi Calm Calm - N/A   Partly Cloudy
12:51 PM 90.0 °F 33.1 °F 13% 29.82 in 10.0 mi West 5.8 mph - N/A   Partly Cloudy
1:51 PM 91.9 °F 25.0 °F 9% 29.79 in 10.0 mi Variable 6.9 mph - N/A   Partly Cloudy
2:51 PM 93.0 °F 25.0 °F 9% 29.78 in 10.0 mi Variable 3.5 mph - N/A   Partly Cloudy
3:51 PM 93.0 °F 26.1 °F 9% 29.78 in 10.0 mi NW 6.9 mph - N/A   Partly Cloudy
4:51 PM 93.0 °F 27.0 °F 9% 29.77 in 10.0 mi NNW 6.9 mph - N/A   Partly Cloudy
5:51 PM 90.0 °F 28.0 °F 11% 29.77 in 10.0 mi NNW 8.1 mph - N/A   Partly Cloudy
6:51 PM 89.1 °F 28.9 °F 12% 29.79 in 10.0 mi NNW 8.1 mph - N/A   Clear
7:51 PM 84.9 °F 32.0 °F 15% 29.80 in 10.0 mi Calm Calm - N/A   Clear
8:51 PM 81.0 °F 33.1 °F 18% 29.81 in 10.0 mi Calm Calm - N/A   Clear
9:51 PM 81.0 °F 36.0 °F 20% 29.82 in 10.0 mi ENE 3.5 mph - N/A   Clear
10:51 PM 77.0 °F 37.0 °F 24% 29.83 in 10.0 mi East 6.9 mph - N/A   Clear
11:51 PM 75.9 °F 35.1 °F 23% 29.83 in 10.0 mi Calm Calm - N/A   Clear